Overview Statistics Trail Chart Weather Telemetry Raw packets
 

This is the latest recevied weather packets stored in our database for station/object IONIA-WX. If no packets are shown the sender has not sent any weather packets the latest 10 day(s).

<< 29 30 31 32 33 34 35 >>
Time Temp. Humidity Pressure Rain* Wind** Luminosity Snow
1787899522 13.89° C 75% 987.9 hPa 0 mm - - -
1787898623 13.89° C 75% 987.9 hPa 0 mm - - -
1787897722 14.44° C 75% 987.9 hPa 0 mm - - -
1787896824 14.44° C 75% 987.9 hPa 0 mm - - -
1787895923 15° C 71% 987.8 hPa 0 mm - - -
1787895016 15° C 66% 987.8 hPa 0 mm - - -
1787894120 15.56° C 66% 987.8 hPa 0 mm - - -
1787893218 15.56° C 66% 987.8 hPa 0 mm - - -
1787892317 16.11° C 64% 987.8 hPa 0 mm - - -
1787891422 16.67° C 65% 987.5 hPa 0 mm - - -
1787890517 16.67° C 65% 987.5 hPa 0 mm - - -
1787889621 17.22° C 65% 987.5 hPa 0 mm - - -
1787888723 17.22° C 60% 987.9 hPa 0 mm - - -
1787887818 17.78° C 62% 987.8 hPa 0 mm - - -
1787886917 17.78° C 62% 987.8 hPa 0 mm - - -
1787886024 18.33° C 62% 987.8 hPa 0 mm - - -
1787885426 18.33° C 54% 987.2 hPa 0 mm - - -
1787884218 18.89° C 59% 987.6 hPa 0 mm - - -
1787883321 19.44° C 59% 987.6 hPa 0 mm - - -
1787882420 19.44° C 59% 987.6 hPa 0 mm - - -
1787881517 20° C 55% 986.2 hPa 0 mm - - -
1787880624 20° C 55% 986.2 hPa 0 mm - - -
1787879717 21.11° C 52% 987.2 hPa 0 mm - - -
1787878818 21.67° C 52% 987.2 hPa 0 mm - - -
1787877916 22.22° C 52% 986.9 hPa 0 mm - - -

* Rain latest hour (hover to see other rain measurements)
** Current wind speed in m/s (hover to see current wind gust speed)